User: anonymous   Login
Location: Tucson
(32.2217°N, 110.9265°W)
Time: 07:02:10
(UTC-07:00)
Language:

SR - Orbit

View from above orbital plane
View from above orbital plane
View from above satellite
View from above satellite

Ground track
Ground track

The orbit data is extracted from the following two-line orbital elements,

1 00046U 60007B   21297.88840502  .00000111  00000-0  45252-4 0  9994
2 00046  66.6891 150.3816 0203809 123.7836 238.2869 14.49452636210762
Epoch (UTC): 24 October 2021 21:19:18
Eccentricity: 0.0203809
inclination: 66.6891°
perigee height: 582 km
apogee height: 872 km
right ascension of ascending node: 150.3816°
argument of perigee: 123.7836°
revolutions per day: 14.49452636
mean anomaly at epoch: 238.2869°
orbit number at epoch: 21076

The dashed part of the orbit path shows where the satellite is in the earth's shadow,  

DLR